Location: Watson Lake
(60.1170°N, 128.8000°W)
Time: 21:32:33
(UTC-07:00)

Daily predictions for brighter satellites

Satellite Brightness Start Highest point End
(mag) Time Altitude Azimuth Time Altitude Azimuth Time Altitude Azimuth
Helios 1B rocket 4.0 21:40:54 10° N 21:44:51 43° WNW 21:48:46 10° SW
Cosmos 2227 Rocket 3.6 21:41:39 10° NW 21:46:47 36° WSW 21:51:53 10° S
Cosmos 1825 Rocket 3.7 21:42:30 10° N 21:46:57 60° ENE 21:51:20 10° SSE
NOSS 2-1 (D) 4.2 21:44:28 10° SSW 21:48:19 37° SE 21:53:00 10° ENE
Cosmos 1821 Rocket 4.2 21:42:17 10° SSW 21:48:23 78° WNW 21:54:32 10° NNE
NOSS 2-1 (C) 4.2 21:45:29 10° SSW 21:49:20 37° SE 21:54:02 10° ENE
Cosmos 2263 Rocket 2.9 21:44:57 10° NW 21:50:21 46° NNE 21:55:43 10° ESE
Cosmos 1500 3.8 21:47:09 10° SSE 21:50:37 36° E 21:54:08 10° NNE
Cosmos 1605 Rocket 4.0 21:44:55 10° S 21:51:14 78° E 21:57:30 10° NNE
ALOS 4.4 21:51:08 10° SSW 21:55:09 28° W 21:59:12 10° NNW
Cosmos 1953 Rocket 3.8 21:50:53 10° N 21:55:16 56° ENE 21:59:39 10° SSE
Cosmos 2061 Rocket 4.4 21:49:32 10° SSE 21:55:25 43° E 22:01:16 10° NNE
Cosmos 405 Rocket 4.2 21:53:08 10° N 21:56:19 24° ENE 21:59:26 10° ESE
Cosmos 1340 2.8 21:53:06 10° NNW 21:56:54 64° ENE 22:00:41 10° SSE
Cosmos 2100 Rocket 4.3 21:51:21 10° SSE 21:57:18 47° E 22:03:13 10° NNE
MetOp-B 4.2 21:53:12 10° SSE 21:58:35 84° ENE 22:03:59 10° NNW
Cosmos 1943 Rocket 3.1 21:55:15 10° WSW 22:00:49 55° NW 22:06:26 10° NE
Meteor 1-5 Rocket 4.3 21:57:07 10° SSW 22:02:31 80° WNW 22:08:07 10° NNE
Cosmos 2297 Rocket 3.5 21:57:31 10° NW 22:02:39 37° WSW 22:07:46 10° S
Cosmos 1515 4.5 21:59:09 10° NNW 22:02:58 55° W 22:06:44 10° S
Cosmos 2227 4.3 21:58:13 10° NW 22:04:02 84° SW 22:09:48 10° SE
deb Chang Zheng 4 4.1 22:00:31 10° NNE 22:04:48 42° E 22:09:02 10° S
Lacrosse 5 3.1 22:00:42 10° W 22:05:06 30° SW 22:09:30 10° SSE
NOSS 2-1 (E) 4.0 22:01:14 10° SSW 22:05:17 44° SE 22:10:19 10° ENE
Genesis I 3.7 22:03:58 10° WNW 22:07:56 56° NNE 22:11:51 10° E
Cosmos 1656 4.3 22:03:51 10° S 22:08:49 34° ESE 22:13:46 10° NE
H-2A R/B 2.4 22:05:30 10° S 22:09:35 62° WSW 22:13:44 10° NNW
Cosmos 1758 Rocket 3.6 22:10:11 10° NNW 22:14:36 70° ENE 22:18:57 10° SSE
Cosmos 1975 2.9 22:13:02 10° S 22:17:10 87° ESE 22:21:19 10° NNE
Cosmos 2208 Rocket 4.0 22:12:09 10° SSW 22:17:31 77° ESE 22:22:59 10° NE
SPOT 5 3.2 22:12:48 10° S 22:17:48 68° WSW 22:22:33 10° NNW
Cosmos 1455 Rocket 3.8 22:14:41 10° SSW 22:18:58 57° WNW 22:23:19 10° N
Cosmos 1743 3.2 22:17:35 10° SSE 22:21:19 43° E 22:25:04 10° NNE
USA 215 3.9 22:16:43 10° SE 22:22:53 44° SSW 22:29:06 10° WNW
YAOGAN 6 3.0 22:21:55 10° S 22:25:34 66° WSW 22:29:18 10° NNW
Cosmos 1842 3.2 22:25:57 10° NNW 22:29:55 77° ENE 22:33:31 12° SSE
Cosmos 2278 Rocket 3.8 22:26:00 10° NW 22:31:01 30° NNE 22:36:01 10° ENE
Cosmos 2228 4.2 22:29:55 14° SE 22:32:39 26° E 22:36:13 10° NNE
Cosmos 372 Rocket 4.1 22:27:38 10° NNW 22:32:44 64° NE 22:37:03 15° SE
Cosmos 1725 Rocket 4.5 22:27:07 10° SSE 22:32:52 42° E 22:38:42 10° NNE
PSLV R/B 3.9 22:31:49 10° S 22:34:48 49° WSW 22:37:49 10° NNW
Cosmos 1570 Rocket 4.2 22:30:32 10° SW 22:35:51 82° WNW 22:41:10 10° NNE
H-2A R/B 2.1 22:31:30 13° SE 22:35:56 66° ENE 22:40:51 10° NNW
Cosmos 1656 Rocket 4.5 22:31:23 10° WSW 22:36:51 55° NW 22:42:16 10° NE
Cosmos 1459 Rocket 3.9 22:31:29 10° S 22:37:31 74° E 22:43:40 10° NNE
DELTA 2 DEB (DPAF) 4.3 22:34:23 14° SSE 22:38:13 67° ENE 22:42:42 10° NNW
IGS 5A 3.9 22:35:42 15° SE 22:38:55 50° ENE 22:42:58 10° N
CZ-4 SHROUD 3.9 22:36:17 10° S 22:39:17 49° WSW 22:42:20 10° NNW
Envisat 4.4 22:34:55 10° SSW 22:39:37 37° W 22:44:22 10° NNW
Cosmos 1818 4.4 22:35:54 10° WNW 22:41:16 51° N 22:46:38 10° ENE
Cosmos 2098 Rocket 4.2 22:36:56 10° SSE 22:43:26 51° E 22:48:45 10° NNE
Cosmos 2058 Rocket 3.6 22:40:15 13° SSE 22:44:00 42° E 22:48:16 10° NNE
Cosmos 1707 3.8 22:42:22 10° N 22:45:57 32° ENE 22:48:25 17° ESE
ASTEX 1 3.4 22:41:01 10° N 22:46:04 83° E 22:51:07 10° S
Landsat 7 3.8 22:42:10 14° SSE 22:46:21 83° ENE 22:51:10 10° NNW
ATLAS CENTAUR R/B 2.1 22:44:38 10° WSW 22:49:37 69° NNW 22:54:20 10° ENE
NOSS 3-3 (A) 4.4 22:45:12 10° WSW 22:51:50 77° NNW 22:59:09 10° ENE
Cosmos 1697 Rocket 2.9 22:46:31 10° S 22:51:54 48° ESE 22:57:19 10° NE
NOSS 3-3 (C) 4.4 22:45:19 10° WSW 22:51:56 77° NNW 22:59:15 10° ENE
Cosmos 2278 3.7 22:46:24 10° SW 22:52:07 87° SE 22:57:54 10° NE
SPOT 1/Viking Rocket 4.1 22:49:45 10° S 22:54:55 59° WSW 23:00:06 10° NNW
Meteor 2-5 Rocket 4.1 22:49:00 10° NNW 22:54:55 60° ENE 22:59:27 17° SE
SL-16 R/B 3.6 22:53:37 16° SE 22:55:31 18° E 22:59:17 10° ENE
SL-08 RB Rocket 4.0 22:51:30 11° S 22:55:54 67° WSW 23:00:33 10° NNW
CZ-4B R/B 4.1 22:55:05 10° ENE 22:56:27 12° NE 22:57:50 10° NNE
Cosmos 1606 Rocket 3.5 22:52:47 10° S 22:57:10 71° E 23:01:38 10° NNE
CZ-4B R/B 3.5 22:55:08 10° NNE 22:59:48 51° ESE 23:03:53 13° S
Cosmos 1802 Rocket 4.1 22:53:22 10° S 22:59:49 86° E 23:06:18 10° NNE
Cosmos 2233 Rocket 4.5 22:57:06 16° SSE 23:01:43 43° E 23:07:33 10° NNE
Terra 1.8 22:58:02 17° SSE 23:01:44 83° ENE 23:06:32 10° NNW
Cosmos 1844 Rocket 3.6 22:58:46 10° NW 23:04:07 43° NNE 23:09:13 11° ESE
Cosmos 2369 3.8 22:59:24 10° SW 23:05:07 87° NW 23:10:54 10° NE
SAR-Lupe-2 4.0 23:03:50 22° SE 23:05:50 49° ENE 23:09:19 10° N
SL-08 R/B 4.5 23:00:47 10° S 23:07:00 74° E 23:13:10 10° NNE
CARTOSAT-1 3.5 23:04:51 18° SSE 23:08:00 88° WSW 23:12:23 10° NNW
Cosmos 1980 Rocket 2.5 23:08:15 10° S 23:13:38 45° ESE 23:19:04 10° NE
NOSS 7 (E) 4.5 23:10:33 10° SW 23:13:54 63° SE 23:17:47 10° ENE
Cosmos 2369 Rocket 4.2 23:10:09 10° WNW 23:14:59 28° N 23:19:49 10° NE
Cosmos 2360 Rocket 4.1 23:14:22 11° ESE 23:15:19 12° E 23:17:17 10° ENE
Cosmos 1666 2.6 23:12:37 17° S 23:15:25 71° E 23:19:13 10° NNE
Cosmos 1125 Rocket 4.0 23:10:52 10° NW 23:15:58 55° WSW 23:19:49 17° S
Spot 4 3.8 23:12:59 20° SSE 23:16:19 84° ENE 23:21:08 10° NNW
ARGOS 4.0 23:12:47 10° S 23:17:57 46° W 23:23:10 10° NNW
Cosmos 2016 Rocket 4.0 23:14:16 10° SSW 23:20:27 84° WNW 23:26:44 10° NNE
Cosmos 1726 Rocket 3.6 23:17:25 10° SSW 23:21:49 85° WNW 23:26:17 10° NNE
CZ-4C R/B 4.0 23:19:23 17° S 23:22:43 62° WSW 23:27:06 10° NNW
Meteor 1-24 Rocket 4.1 23:19:58 10° NNW 23:26:00 62° ENE 23:29:59 22° SE
SL-19 R/B 4.2 23:22:48 10° NNE 23:28:35 90° WNW 23:34:01 10° SSW
Cosmos 1812 Rocket 4.2 23:26:44 25° SE 23:28:39 38° E 23:32:42 10° NNE
Cosmos 1441 Rocket 3.6 23:24:43 10° N 23:28:40 54° ENE 23:30:33 27° SE
Cosmos 1763 Rocket 3.5 23:24:48 12° SSW 23:29:31 58° ESE 23:34:31 10° NE
Cosmos 1378 4.0 23:25:56 10° N 23:29:31 38° ENE 23:31:10 25° ESE
DMSP B5D2-2 4.3 23:27:19 10° NNE 23:32:30 52° E 23:35:46 22° S
Cosmos 405 Rocket 3.0 23:28:57 10° NNW 23:32:46 59° W 23:34:54 23° S
Cosmos 2263 Rocket 2.3 23:29:03 10° NW 23:34:36 66° WSW 23:38:03 23° SSE
NOSS 2 (A) 3.8 23:33:42 10° WNW 23:36:06 89° NNE 23:36:22 67° ESE
NOSS 2-1 (D) 4.0 23:34:11 10° WSW 23:38:35 79° NNW 23:44:20 10° ENE
NOSS 2-1 (C) 4.0 23:35:12 10° WSW 23:39:37 79° NNW 23:45:23 10° ENE
Cosmos 468 Rocket 4.1 23:35:23 10° SW 23:40:32 78° NW 23:45:44 10° NNE
Cosmos 1437 3.7 23:38:09 10° N 23:41:18 38° ENE 23:42:22 29° ESE
GP-B 3.0 23:39:45 10° N 23:44:14 84° E 23:46:46 26° S
Cosmos 2322 Rocket 2.8 23:42:07 24° SSE 23:44:34 36° ESE 23:49:40 10° NE
Cosmos 1943 Rocket 4.2 23:40:44 10° WNW 23:45:43 30° NNW 23:50:42 10° NE
Genesis I 3.5 23:41:49 10° WNW 23:45:44 55° SW 23:47:13 33° SSE
Lacrosse 5 4.3 23:46:14 10° WSW 23:46:45 10° SW 23:47:16 10° SW
Cosmos 1814 Rocket 4.1 23:42:28 10° SW 23:47:49 79° NW 23:53:09 10° NNE
Cosmos 2360 4.3 23:43:37 14° SSW 23:48:21 55° ESE 23:53:57 10° NE
Cosmos 841 Rocket 3.4 23:44:43 13° SSW 23:49:27 71° ESE 23:54:40 10° NE
Cosmos 1656 3.9 23:46:34 10° SW 23:52:10 74° NW 23:57:44 10° NE
Nadezhda 4 Rocket 4.3 23:46:19 10° N 23:52:33 57° ENE 23:56:23 24° SE
Meteor 2-9 Rocket 4.2 23:48:25 11° SSW 23:53:42 78° WNW 23:59:07 10° NNE
Okean 3 Rocket 3.5 23:49:32 10° NNW 23:53:59 89° W 23:56:07 31° SSE
